| time (UTC) | temp F | wind direction | speed MPH | gust MPH | rain 1hr in | rain 24hr in | rain mn in | humidity % | barometer mb |
| 20260905085253 | 78 | 29 | 2.0 | 5.0 | 0.00 | 0.00 | 0.00 | 66 | 1017.1 |
| 20260905084742 | 78 | 360 | 1.0 | 7.0 | 0.00 | 0.00 | 0.00 | 67 | 1017.1 |
| 20260905084249 | 77 | 360 | 2.0 | 7.0 | 0.00 | 0.00 | 0.00 | 68 | 1017.1 |
| 20260905083748 | 77 | 262 | 2.0 | 6.0 | 0.00 | 0.00 | 0.00 | 69 | 1017.1 |
| 20260905083243 | 77 | 269 | 3.0 | 6.0 | 0.00 | 0.00 | 0.00 | 69 | 1017.1 |
| 20260905082742 | 77 | 292 | 3.0 | 5.0 | 0.00 | 0.00 | 0.00 | 70 | 1017.1 |
| 20260905082251 | 77 | 346 | 2.0 | 5.0 | 0.00 | 0.00 | 0.00 | 69 | 1017.0 |
| 20260905081740 | 77 | 9 | 2.0 | 4.0 | 0.00 | 0.00 | 0.00 | 69 | 1017.1 |
| 20260905081249 | 77 | 5 | 0.0 | 3.0 | 0.00 | 0.00 | 0.00 | 69 | 1017.0 |
| 20260905080749 | 77 | 5 | 0.0 | 3.0 | 0.00 | 0.00 | 0.00 | 71 | 1016.9 |
| 20260905080247 | 76 | 259 | 0.0 | 0.0 | 0.00 | 0.00 | 0.00 | 69 | 1016.9 |
| 20260905075812 | 76 | 259 | 0.0 | 0.0 | 0.00 | 0.00 | 0.00 | 70 | 1016.9 |
| 20260905075245 | 76 | 259 | 0.0 | 0.0 | 0.00 | 0.00 | 0.00 | 71 | 1016.8 |
| 20260905074755 | 75 | 219 | 0.0 | 0.0 | 0.00 | 0.00 | 0.00 | 73 | 1016.7 |
| 20260905074233 | 75 | 219 | 0.0 | 0.0 | 0.00 | 0.00 | 0.00 | 73 | 1016.7 |
| 20260905073733 | 74 | 217 | 0.0 | 0.0 | 0.00 | 0.00 | 0.00 | 76 | 1016.8 |
| 20260905073246 | 74 | 211 | 0.0 | 0.0 | 0.00 | 0.00 | 0.00 | 76 | 1016.7 |
| 20260905072802 | 74 | 211 | 0.0 | 0.0 | 0.00 | 0.00 | 0.00 | 77 | 1016.7 |
| 20260905072247 | 73 | 211 | 0.0 | 0.0 | 0.00 | 0.00 | 0.00 | 78 | 1016.6 |
| 20260905071740 | 73 | 211 | 0.0 | 0.0 | 0.00 | 0.00 | 0.00 | 79 | 1016.6 |
| 20260905071245 | 72 | 211 | 0.0 | 0.0 | 0.00 | 0.00 | 0.00 | 80 | 1016.7 |
| 20260905070723 | 72 | 211 | 0.0 | 0.0 | 0.00 | 0.00 | 0.00 | 83 | 1016.6 |
| 20260905070237 | 71 | 211 | 0.0 | 1.0 | 0.00 | 0.00 | 0.00 | 83 | 1016.7 |
| 20260905065747 | 71 | 211 | 0.0 | 1.0 | 0.00 | 0.00 | 0.00 | 83 | 1016.7 |
| 20260905065238 | 71 | 255 | 0.0 | 1.0 | 0.00 | 0.00 | 0.00 | 83 | 1016.6 |
| 20260905064744 | 70 | 255 | 0.0 | 1.0 | 0.00 | 0.00 | 0.00 | 84 | 1016.6 |
| 20260905064306 | 70 | 255 | 0.0 | 1.0 | 0.00 | 0.00 | 0.00 | 84 | 1016.5 |
| 20260905063737 | 70 | 255 | 0.0 | 1.0 | 0.00 | 0.00 | 0.00 | 83 | 1016.4 |
| 20260905063231 | 70 | 255 | 0.0 | 1.0 | 0.00 | 0.00 | 0.00 | 83 | 1016.5 |
| 20260905062723 | 70 | 255 | 0.0 | 1.0 | 0.00 | 0.00 | 0.00 | 83 | 1016.4 |
| 20260905062249 | 70 | 255 | 0.0 | 2.0 | 0.00 | 0.00 | 0.00 | 84 | 1016.4 |
| 20260905061739 | 69 | 255 | 0.0 | 2.0 | 0.00 | 0.00 | 0.00 | 84 | 1016.5 |
| 20260905061249 | 69 | 255 | 0.0 | 0.0 | 0.00 | 0.00 | 0.00 | 84 | 1016.5 |
| 20260905060742 | 69 | 255 | 0.0 | 1.0 | 0.00 | 0.00 | 0.00 | 86 | 1016.4 |
| 20260905060242 | 68 | 255 | 1.0 | 1.0 | 0.00 | 0.00 | 0.00 | 88 | 1016.4 |
| 20260905055729 | 67 | 255 | 0.0 | 1.0 | 0.00 | 0.00 | 0.00 | 88 | 1016.4 |
| 20260905055237 | 66 | 255 | 0.0 | 1.0 | 0.00 | 0.00 | 0.00 | 89 | 1016.4 |
| 20260905054741 | 66 | 255 | 0.0 | 1.0 | 0.00 | 0.00 | 0.00 | 90 | 1016.3 |
| 20260905054249 | 65 | 255 | 0.0 | 1.0 | 0.00 | 0.00 | 0.00 | 90 | 1016.3 |
| 20260905053741 | 64 | 255 | 0.0 | 1.0 | 0.00 | 0.00 | 0.00 | 90 | 1016.3 |
| 20260905053231 | 64 | 255 | 0.0 | 2.0 | 0.00 | 0.00 | 0.00 | 90 | 1016.3 |
| 20260905052730 | 64 | 255 | 1.0 | 3.0 | 0.00 | 0.00 | 0.00 | 90 | 1016.2 |
| 20260905052252 | 63 | 253 | 1.0 | 3.0 | 0.00 | 0.00 | 0.00 | 90 | 1016.2 |
| 20260905051804 | 63 | 254 | 1.0 | 2.0 | 0.00 | 0.00 | 0.00 | 89 | 1016.1 |
| 20260905051247 | 63 | 320 | 0.0 | 1.0 | 0.00 | 0.00 | 0.00 | 89 | 1015.9 |
| 20260905050742 | 63 | 320 | 0.0 | 2.0 | 0.00 | 0.00 | 0.00 | 89 | 1016.0 |
| 20260905050251 | 63 | 319 | 0.0 | 1.0 | 0.00 | 0.00 | 0.00 | 89 | 1016.0 |
| 20260905045741 | 63 | 319 | 0.0 | 2.0 | 0.00 | 0.00 | 0.00 | 89 | 1015.8 |
| 20260905045226 | 63 | 319 | 0.0 | 2.0 | 0.00 | 0.00 | 0.00 | 89 | 1015.6 |
| 20260905044738 | 63 | 318 | 0.0 | 4.0 | 0.00 | 0.00 | 0.00 | 89 | 1015.6 |
| 20260905044237 | 63 | 318 | 1.0 | 4.0 | 0.00 | 0.00 | 0.00 | 89 | 1015.7 |
| 20260905043725 | 63 | 318 | 1.0 | 3.0 | 0.00 | 0.00 | 0.00 | 88 | 1015.6 |
| 20260905043303 | 63 | 318 | 0.0 | 2.0 | 0.00 | 0.00 | 0.00 | 88 | 1015.5 |
| 20260905042724 | 63 | 318 | 1.0 | 2.0 | 0.00 | 0.00 | 0.00 | 88 | 1015.5 |
| 20260905042259 | 63 | 319 | 0.0 | 1.0 | 0.00 | 0.00 | 0.00 | 88 | 1015.4 |
| 20260905041750 | 63 | 319 | 0.0 | 1.0 | 0.00 | 0.00 | 0.00 | 88 | 1015.4 |
| 20260905041240 | 63 | 319 | 0.0 | 1.0 | 0.00 | 0.00 | 0.00 | 88 | 1015.5 |
| 20260905040738 | 64 | 319 | 0.0 | 1.0 | 0.00 | 0.00 | 0.00 | 88 | 1015.6 |
| 20260905040238 | 64 | 319 | 0.0 | 3.0 | 0.00 | 0.00 | 0.00 | 88 | 1015.5 |
| 20260905035739 | 64 | 319 | 1.0 | 3.0 | 0.00 | 0.00 | 0.00 | 88 | 1015.6 |
| 20260905035238 | 64 | 319 | 1.0 | 3.0 | 0.00 | 0.00 | 0.00 | 88 | 1015.6 |
| 20260905034737 | 64 | 319 | 0.0 | 2.0 | 0.00 | 0.00 | 0.00 | 88 | 1015.6 |
| 20260905034223 | 64 | 319 | 1.0 | 2.0 | 0.00 | 0.00 | 0.00 | 87 | 1015.7 |
| 20260905033751 | 64 | 319 | 0.0 | 1.0 | 0.00 | 0.00 | 0.00 | 87 | 1015.6 |
| 20260905033232 | 64 | 319 | 0.0 | 1.0 | 0.00 | 0.00 | 0.00 | 87 | 1015.7 |
| 20260905032744 | 64 | 319 | 0.0 | 2.0 | 0.00 | 0.00 | 0.00 | 87 | 1015.9 |
| 20260905032241 | 64 | 319 | 1.0 | 2.0 | 0.00 | 0.00 | 0.00 | 87 | 1015.8 |
| 20260905031752 | 64 | 319 | 0.0 | 1.0 | 0.00 | 0.00 | 0.00 | 87 | 1015.8 |
| 20260905031242 | 64 | 319 | 0.0 | 1.0 | 0.00 | 0.00 | 0.00 | 87 | 1015.8 |
| 20260905030745 | 64 | 319 | 0.0 | 1.0 | 0.00 | 0.00 | 0.00 | 87 | 1016.0 |
| 20260905030250 | 65 | 319 | 0.0 | 2.0 | 0.00 | 0.00 | 0.00 | 86 | 1016.0 |
| 20260905025753 | 65 | 320 | 1.0 | 2.0 | 0.00 | 0.00 | 0.00 | 86 | 1015.9 |
| 20260905025233 | 65 | 319 | 0.0 | 2.0 | 0.00 | 0.00 | 0.00 | 86 | 1016.0 |
| 20260905024728 | 65 | 320 | 0.0 | 1.0 | 0.00 | 0.00 | 0.00 | 86 | 1016.0 |
| 20260905024249 | 65 | 320 | 0.0 | 3.0 | 0.00 | 0.00 | 0.00 | 86 | 1016.0 |
| 20260905023734 | 65 | 320 | 1.0 | 3.0 | 0.00 | 0.00 | 0.00 | 86 | 1016.0 |
| 20260905023228 | 65 | 320 | 0.0 | 4.0 | 0.00 | 0.00 | 0.00 | 86 | 1015.9 |
| 20260905022756 | 65 | 323 | 2.0 | 4.0 | 0.00 | 0.00 | 0.00 | 87 | 1015.8 |
| 20260905022258 | 65 | 304 | 2.0 | 3.0 | 0.00 | 0.00 | 0.00 | 87 | 1015.9 |
| 20260905021726 | 65 | 300 | 2.0 | 3.0 | 0.00 | 0.00 | 0.00 | 87 | 1015.8 |
| 20260905021241 | 65 | 292 | 2.0 | 3.0 | 0.00 | 0.00 | 0.00 | 87 | 1015.9 |
| 20260905020753 | 65 | 284 | 1.0 | 5.0 | 0.00 | 0.00 | 0.00 | 87 | 1015.9 |
| 20260905020243 | 65 | 14 | 2.0 | 5.0 | 0.00 | 0.00 | 0.00 | 87 | 1015.8 |
| 20260905015751 | 64 | 333 | 3.0 | 4.0 | 0.00 | 0.00 | 0.00 | 87 | 1016.1 |
| 20260905015242 | 64 | 327 | 2.0 | 4.0 | 0.00 | 0.00 | 0.00 | 87 | 1016.1 |
| 20260905014737 | 64 | 304 | 0.0 | 0.0 | 0.00 | 0.00 | 0.00 | 86 | 1016.1 |
| 20260905014226 | 65 | 300 | 0.0 | 0.0 | 0.00 | 0.00 | 0.00 | 86 | 1016.2 |
| 20260905013724 | 65 | 298 | 0.0 | 0.0 | 0.00 | 0.00 | 0.00 | 86 | 1016.2 |
| 20260905013242 | 65 | 298 | 0.0 | 0.0 | 0.00 | 0.00 | 0.00 | 86 | 1016.2 |
| 20260905012737 | 65 | 327 | 0.0 | 0.0 | 0.00 | 0.00 | 0.00 | 86 | 1016.1 |
| 20260905012237 | 65 | 329 | 0.0 | 0.0 | 0.00 | 0.00 | 0.00 | 86 | 1016.1 |
| 20260905011759 | 65 | 329 | 0.0 | 0.0 | 0.00 | 0.00 | 0.00 | 85 | 1016.2 |
| 20260905011237 | 65 | 329 | 0.0 | 0.0 | 0.00 | 0.00 | 0.00 | 85 | 1016.3 |
| 20260905010746 | 65 | 329 | 0.0 | 0.0 | 0.00 | 0.00 | 0.00 | 85 | 1016.3 |
| 20260905010223 | 65 | 329 | 0.0 | 0.0 | 0.00 | 0.00 | 0.00 | 85 | 1016.3 |
| 20260905005759 | 65 | 329 | 0.0 | 0.0 | 0.00 | 0.00 | 0.00 | 85 | 1016.4 |
| 20260905005250 | 65 | 329 | 0.0 | 0.0 | 0.00 | 0.00 | 0.00 | 84 | 1016.4 |
| 20260905004735 | 65 | 329 | 0.0 | 0.0 | 0.00 | 0.00 | 0.00 | 84 | 1016.4 |
| 20260905004226 | 65 | 329 | 0.0 | 0.0 | 0.00 | 0.00 | 0.00 | 84 | 1016.3 |
| 20260905003740 | 65 | 329 | 0.0 | 0.0 | 0.00 | 0.00 | 0.00 | 84 | 1016.4 |
| 20260905003240 | 65 | 329 | 0.0 | 0.0 | 0.00 | 0.00 | 0.00 | 84 | 1016.4 |
| 20260905002749 | 65 | 329 | 0.0 | 0.0 | 0.00 | 0.00 | 0.00 | 84 | 1016.5 |
| 20260905002242 | 65 | 329 | 0.0 | 0.0 | 0.00 | 0.00 | 0.00 | 83 | 1016.6 |
| 20260905001746 | 65 | 329 | 0.0 | 1.0 | 0.00 | 0.00 | 0.00 | 83 | 1016.7 |
| 20260905001248 | 65 | 329 | 0.0 | 1.0 | 0.00 | 0.00 | 0.00 | 83 | 1016.6 |
| 20260905000732 | 65 | 329 | 0.0 | 0.0 | 0.00 | 0.00 | 0.00 | 82 | 1016.6 |
| 20260905000303 | 65 | 329 | 0.0 | 0.0 | 0.00 | 0.00 | 0.00 | 82 | 1016.6 |
| 20260904235751 | 65 | 329 | 0.0 | 2.0 | 0.00 | 0.00 | 0.00 | 82 | 1016.7 |
| 20260904235255 | 65 | 329 | 1.0 | 2.0 | 0.00 | 0.00 | 0.00 | 82 | 1016.6 |
| 20260904234726 | 65 | 329 | 0.0 | 2.0 | 0.00 | 0.00 | 0.00 | 82 | 1016.7 |
| 20260904234241 | 65 | 329 | 0.0 | 1.0 | 0.00 | 0.00 | 0.00 | 82 | 1016.7 |
| 20260904233723 | 65 | 329 | 0.0 | 1.0 | 0.00 | 0.00 | 0.00 | 82 | 1016.8 |
| 20260904233258 | 65 | 329 | 0.0 | 1.0 | 0.00 | 0.00 | 0.00 | 81 | 1016.9 |
| 20260904232737 | 65 | 329 | 0.0 | 4.0 | 0.00 | 0.00 | 0.00 | 81 | 1016.9 |
| 20260904232228 | 65 | 329 | 1.0 | 4.0 | 0.00 | 0.00 | 0.00 | 81 | 1016.8 |
| 20260904231735 | 65 | 331 | 2.0 | 4.0 | 0.00 | 0.00 | 0.00 | 81 | 1016.9 |
| 20260904231223 | 65 | 329 | 0.0 | 0.0 | 0.00 | 0.00 | 0.00 | 81 | 1016.7 |
| 20260904230750 | 65 | 329 | 0.0 | 0.0 | 0.00 | 0.00 | 0.00 | 81 | 1016.8 |
| 20260904230242 | 65 | 329 | 0.0 | 0.0 | 0.00 | 0.00 | 0.00 | 80 | 1016.8 |
| 20260904225741 | 65 | 329 | 0.0 | 0.0 | 0.00 | 0.00 | 0.00 | 80 | 1016.9 |
| 20260904225229 | 65 | 329 | 0.0 | 0.0 | 0.00 | 0.00 | 0.00 | 80 | 1016.8 |
| 20260904224743 | 65 | 329 | 0.0 | 0.0 | 0.00 | 0.00 | 0.00 | 80 | 1016.9 |
| 20260904224252 | 65 | 329 | 0.0 | 0.0 | 0.00 | 0.00 | 0.00 | 80 | 1017.0 |
| 20260904223803 | 65 | 329 | 0.0 | 0.0 | 0.00 | 0.00 | 0.00 | 80 | 1017.0 |
| 20260904223242 | 65 | 329 | 0.0 | 2.0 | 0.00 | 0.00 | 0.00 | 80 | 1017.0 |
| 20260904222754 | 66 | 329 | 0.0 | 3.0 | 0.00 | 0.00 | 0.00 | 80 | 1017.0 |
| 20260904222242 | 66 | 329 | 1.0 | 3.0 | 0.00 | 0.00 | 0.00 | 80 | 1017.0 |
| 20260904221805 | 66 | 329 | 0.0 | 0.0 | 0.00 | 0.00 | 0.00 | 80 | 1017.0 |
| 20260904221224 | 66 | 329 | 0.0 | 2.0 | 0.00 | 0.00 | 0.00 | 81 | 1016.9 |
| 20260904220740 | 66 | 329 | 1.0 | 2.0 | 0.00 | 0.00 | 0.00 | 81 | 1017.1 |
| 20260904220240 | 66 | 329 | 1.0 | 2.0 | 0.00 | 0.00 | 0.00 | 81 | 1017.0 |
| 20260904215744 | 66 | 332 | 0.0 | 0.0 | 0.00 | 0.00 | 0.00 | 81 | 1017.0 |
| 20260904215232 | 67 | 332 | 0.0 | 0.0 | 0.00 | 0.00 | 0.00 | 81 | 1017.1 |
| 20260904214724 | 67 | 332 | 0.0 | 0.0 | 0.00 | 0.00 | 0.00 | 81 | 1017.2 |
| 20260904214225 | 67 | 332 | 0.0 | 3.0 | 0.00 | 0.00 | 0.00 | 81 | 1017.1 |
| 20260904213741 | 67 | 332 | 0.0 | 3.0 | 0.00 | 0.00 | 0.00 | 81 | 1017.2 |
| 20260904213247 | 67 | 318 | 1.0 | 3.0 | 0.00 | 0.00 | 0.00 | 81 | 1017.2 |
| 20260904212734 | 67 | 142 | 0.0 | 0.0 | 0.00 | 0.00 | 0.00 | 81 | 1017.2 |
| 20260904212233 | 67 | 142 | 0.0 | 1.0 | 0.00 | 0.00 | 0.00 | 82 | 1017.3 |
| 20260904211725 | 68 | 142 | 0.0 | 2.0 | 0.00 | 0.00 | 0.00 | 82 | 1017.4 |
| 20260904211241 | 68 | 142 | 1.0 | 2.0 | 0.00 | 0.00 | 0.00 | 81 | 1017.4 |
| 20260904210741 | 68 | 142 | 0.0 | 0.0 | 0.00 | 0.00 | 0.00 | 82 | 1017.2 |
| 20260904210248 | 68 | 142 | 0.0 | 0.0 | 0.00 | 0.00 | 0.00 | 82 | 1017.4 |
| 20260904205739 | 69 | 142 | 0.0 | 2.0 | 0.00 | 0.00 | 0.00 | 82 | 1017.5 |
| 20260904205238 | 69 | 142 | 0.0 | 2.0 | 0.00 | 0.00 | 0.00 | 82 | 1017.5 |
| 20260904204727 | 69 | 142 | 0.0 | 2.0 | 0.00 | 0.00 | 0.00 | 82 | 1017.4 |
| 20260904204234 | 69 | 142 | 0.0 | 0.0 | 0.00 | 0.00 | 0.00 | 82 | 1017.5 |
| 20260904203726 | 70 | 142 | 0.0 | 1.0 | 0.00 | 0.00 | 0.00 | 82 | 1017.5 |
| 20260904203307 | 70 | 142 | 0.0 | 1.0 | 0.00 | 0.00 | 0.00 | 82 | 1017.5 |
| 20260904202734 | 70 | 142 | 0.0 | 0.0 | 0.00 | 0.00 | 0.00 | 82 | 1017.5 |
| 20260904202244 | 70 | 142 | 0.0 | 1.0 | 0.00 | 0.00 | 0.00 | 81 | 1017.6 |
| 20260904201752 | 70 | 142 | 0.0 | 1.0 | 0.00 | 0.00 | 0.00 | 81 | 1017.6 |
| 20260904201246 | 70 | 142 | 0.0 | 0.0 | 0.00 | 0.00 | 0.00 | 81 | 1017.5 |
| 20260904200753 | 71 | 142 | 0.0 | 0.0 | 0.00 | 0.00 | 0.00 | 81 | 1017.6 |
| 20260904200224 | 71 | 142 | 0.0 | 0.0 | 0.00 | 0.00 | 0.00 | 81 | 1017.5 |
| 20260904195745 | 71 | 142 | 0.0 | 0.0 | 0.00 | 0.00 | 0.00 | 80 | 1017.6 |
| 20260904195238 | 71 | 142 | 0.0 | 0.0 | 0.00 | 0.00 | 0.00 | 80 | 1017.5 |
| 20260904194747 | 71 | 142 | 0.0 | 1.0 | 0.00 | 0.00 | 0.00 | 80 | 1017.4 |
| 20260904194239 | 71 | 142 | 0.0 | 1.0 | 0.00 | 0.00 | 0.00 | 80 | 1017.4 |
| 20260904193726 | 71 | 142 | 0.0 | 1.0 | 0.00 | 0.00 | 0.00 | 79 | 1017.4 |
| 20260904193237 | 72 | 142 | 0.0 | 7.0 | 0.00 | 0.00 | 0.00 | 79 | 1017.4 |
| 20260904192737 | 72 | 142 | 2.0 | 7.0 | 0.00 | 0.00 | 0.00 | 79 | 1017.3 |
| 20260904192227 | 72 | 234 | 0.0 | 0.0 | 0.00 | 0.00 | 0.00 | 79 | 1017.2 |
| 20260904191747 | 73 | 234 | 0.0 | 0.0 | 0.00 | 0.00 | 0.00 | 78 | 1017.2 |
| 20260904191239 | 73 | 234 | 0.0 | 0.0 | 0.00 | 0.00 | 0.00 | 78 | 1017.1 |
| 20260904190746 | 73 | 234 | 0.0 | 0.0 | 0.00 | 0.00 | 0.00 | 78 | 1017.0 |
| 20260904190245 | 73 | 234 | 0.0 | 0.0 | 0.00 | 0.00 | 0.00 | 78 | 1016.9 |
| 20260904185751 | 74 | 234 | 0.0 | 0.0 | 0.00 | 0.00 | 0.00 | 77 | 1017.0 |
| 20260904185224 | 74 | 234 | 0.0 | 0.0 | 0.00 | 0.00 | 0.00 | 77 | 1017.0 |
| 20260904184742 | 75 | 234 | 0.0 | 0.0 | 0.00 | 0.00 | 0.00 | 76 | 1017.0 |
| 20260904184252 | 75 | 234 | 0.0 | 0.0 | 0.00 | 0.00 | 0.00 | 75 | 1017.0 |
| 20260904183732 | 75 | 234 | 0.0 | 0.0 | 0.00 | 0.00 | 0.00 | 75 | 1016.8 |
| 20260904183239 | 76 | 234 | 0.0 | 0.0 | 0.00 | 0.00 | 0.00 | 74 | 1016.9 |
| 20260904182739 | 76 | 234 | 0.0 | 1.0 | 0.00 | 0.00 | 0.00 | 74 | 1016.8 |
| 20260904182246 | 77 | 234 | 0.0 | 1.0 | 0.00 | 0.00 | 0.00 | 73 | 1016.8 |
| 20260904181741 | 78 | 234 | 0.0 | 0.0 | 0.00 | 0.00 | 0.00 | 72 | 1016.8 |
| 20260904181228 | 78 | 234 | 0.0 | 1.0 | 0.00 | 0.00 | 0.00 | 72 | 1016.7 |
| 20260904180750 | 79 | 234 | 0.0 | 1.0 | 0.00 | 0.00 | 0.00 | 70 | 1016.7 |
| 20260904180240 | 80 | 234 | 0.0 | 0.0 | 0.00 | 0.00 | 0.00 | 69 | 1016.7 |
| 20260904175747 | 81 | 234 | 0.0 | 0.0 | 0.00 | 0.00 | 0.00 | 67 | 1016.6 |
| 20260904175237 | 82 | 234 | 0.0 | 0.0 | 0.00 | 0.00 | 0.00 | 66 | 1016.6 |
| 20260904174749 | 82 | 234 | 0.0 | 0.0 | 0.00 | 0.00 | 0.00 | 62 | 1016.7 |
| 20260904174244 | 83 | 234 | 0.0 | 1.0 | 0.00 | 0.00 | 0.00 | 60 | 1016.6 |
| 20260904173742 | 84 | 234 | 0.0 | 2.0 | 0.00 | 0.00 | 0.00 | 59 | 1016.6 |
| 20260904173247 | 85 | 234 | 2.0 | 2.0 | 0.00 | 0.00 | 0.00 | 58 | 1016.6 |
| 20260904172739 | 86 | 234 | 2.0 | 2.0 | 0.00 | 0.00 | 0.00 | 57 | 1016.5 |
| 20260904172248 | 87 | 217 | 0.0 | 1.0 | 0.00 | 0.00 | 0.00 | 57 | 1016.4 |
| 20260904171740 | 88 | 217 | 0.0 | 2.0 | 0.00 | 0.00 | 0.00 | 57 | 1016.4 |
| 20260904171249 | 89 | 217 | 1.0 | 3.0 | 0.00 | 0.00 | 0.00 | 54 | 1016.5 |
| 20260904170806 | 89 | 217 | 0.0 | 3.0 | 0.00 | 0.00 | 0.00 | 51 | 1016.4 |
| 20260904170241 | 90 | 217 | 1.0 | 3.0 | 0.00 | 0.00 | 0.00 | 51 | 1016.6 |
| 20260904165745 | 90 | 217 | 0.0 | 3.0 | 0.00 | 0.00 | 0.00 | 49 | 1016.6 |
| 20260904165243 | 90 | 217 | 2.0 | 3.0 | 0.00 | 0.00 | 0.00 | 47 | 1016.6 |
| 20260904164733 | 90 | 217 | 2.0 | 3.0 | 0.00 | 0.00 | 0.00 | 47 | 1016.5 |
| 20260904164226 | 90 | 234 | 1.0 | 3.0 | 0.00 | 0.00 | 0.00 | 47 | 1016.6 |
| 20260904163747 | 90 | 234 | 2.0 | 3.0 | 0.00 | 0.00 | 0.00 | 46 | 1016.6 |
| 20260904163242 | 90 | 242 | 2.0 | 3.0 | 0.00 | 0.00 | 0.00 | 46 | 1016.7 |
| 20260904162812 | 91 | 238 | 1.0 | 3.0 | 0.00 | 0.00 | 0.00 | 45 | 1016.6 |
| 20260904162241 | 90 | 229 | 1.0 | 4.0 | 0.00 | 0.00 | 0.00 | 45 | 1016.7 |
| 20260904161740 | 90 | 229 | 2.0 | 6.0 | 0.00 | 0.00 | 0.00 | 46 | 1016.6 |
| 20260904161249 | 90 | 252 | 3.0 | 6.0 | 0.00 | 0.00 | 0.00 | 45 | 1016.8 |
| 20260904160734 | 91 | 264 | 2.0 | 5.0 | 0.00 | 0.00 | 0.00 | 45 | 1016.7 |
| 20260904160223 | 91 | 250 | 3.0 | 4.0 | 0.00 | 0.00 | 0.00 | 45 | 1016.8 |
| 20260904155748 | 90 | 273 | 2.0 | 5.0 | 0.00 | 0.00 | 0.00 | 45 | 1016.8 |
| 20260904155237 | 90 | 241 | 2.0 | 5.0 | 0.00 | 0.00 | 0.00 | 44 | 1016.9 |
| 20260904154728 | 90 | 227 | 1.0 | 4.0 | 0.00 | 0.00 | 0.00 | 45 | 1017.4 |
| 20260904154308 | 90 | 310 | 2.0 | 8.0 | 0.00 | 0.00 | 0.00 | 45 | 1016.9 |
| 20260904153742 | 90 | 234 | 3.0 | 8.0 | 0.00 | 0.00 | 0.00 | 43 | 1017.0 |
| 20260904153242 | 90 | 177 | 3.0 | 6.0 | 0.00 | 0.00 | 0.00 | 44 | 1017.0 |
| 20260904152748 | 90 | 233 | 4.0 | 7.0 | 0.00 | 0.00 | 0.00 | 44 | 1017.0 |
| 20260904152241 | 90 | 203 | 4.0 | 9.0 | 0.00 | 0.00 | 0.00 | 44 | 1017.0 |
| 20260904151745 | 90 | 250 | 4.0 | 9.0 | 0.00 | 0.00 | 0.00 | 45 | 1017.0 |
| 20260904151239 | 90 | 250 | 1.0 | 4.0 | 0.00 | 0.00 | 0.00 | 44 | 1017.1 |
| 20260904150748 | 90 | 334 | 3.0 | 4.0 | 0.00 | 0.00 | 0.00 | 44 | 1017.1 |
| 20260904150238 | 90 | 250 | 2.0 | 5.0 | 0.00 | 0.00 | 0.00 | 46 | 1017.1 |
| 20260904145730 | 90 | 273 | 2.0 | 4.0 | 0.00 | 0.00 | 0.00 | 45 | 1017.1 |
| 20260904145243 | 89 | 164 | 1.0 | 7.0 | 0.00 | 0.00 | 0.00 | 47 | 1017.2 |
| 20260904144813 | 89 | 211 | 2.0 | 9.0 | 0.00 | 0.00 | 0.00 | 46 | 1017.2 |
| 20260904144238 | 89 | 220 | 5.0 | 10.0 | 0.00 | 0.00 | 0.00 | 45 | 1017.2 |
| 20260904143750 | 89 | 234 | 3.0 | 6.0 | 0.00 | 0.00 | 0.00 | 45 | 1017.3 |
| 20260904143243 | 89 | 253 | 3.0 | 7.0 | 0.00 | 0.00 | 0.00 | 45 | 1017.2 |
| 20260904142742 | 90 | 236 | 3.0 | 8.0 | 0.00 | 0.00 | 0.00 | 46 | 1017.2 |
| 20260904142230 | 90 | 252 | 4.0 | 8.0 | 0.00 | 0.00 | 0.00 | 46 | 1017.4 |
| 20260904141741 | 89 | 265 | 1.0 | 7.0 | 0.00 | 0.00 | 0.00 | 47 | 1017.5 |
| 20260904141247 | 89 | 200 | 3.0 | 7.0 | 0.00 | 0.00 | 0.00 | 47 | 1017.4 |
| 20260904140737 | 89 | 275 | 4.0 | 9.0 | 0.00 | 0.00 | 0.00 | 46 | 1017.4 |
| 20260904140233 | 89 | 263 | 6.0 | 9.0 | 0.00 | 0.00 | 0.00 | 46 | 1017.4 |
| 20260904135733 | 89 | 224 | 4.0 | 7.0 | 0.00 | 0.00 | 0.00 | 47 | 1017.5 |
| 20260904135300 | 89 | 211 | 2.0 | 5.0 | 0.00 | 0.00 | 0.00 | 49 | 1017.4 |
| 20260904134735 | 88 | 350 | 0.0 | 6.0 | 0.00 | 0.00 | 0.00 | 52 | 1017.6 |
| 20260904134225 | 88 | 242 | 3.0 | 9.0 | 0.00 | 0.00 | 0.00 | 48 | 1017.7 |
| 20260904133723 | 88 | 121 | 3.0 | 10.0 | 0.00 | 0.00 | 0.00 | 48 | 1017.6 |
| 20260904133246 | 89 | 216 | 4.0 | 11.0 | 0.00 | 0.00 | 0.00 | 47 | 1017.7 |
| 20260904132728 | 89 | 146 | 6.0 | 11.0 | 0.00 | 0.00 | 0.00 | 47 | 1017.7 |
| 20260904132305 | 89 | 192 | 5.0 | 9.0 | 0.00 | 0.00 | 0.00 | 48 | 1017.7 |
| 20260904131748 | 88 | 81 | 2.0 | 4.0 | 0.00 | 0.00 | 0.00 | 50 | 1017.8 |
| 20260904131242 | 89 | 173 | 1.0 | 9.0 | 0.00 | 0.00 | 0.00 | 47 | 1017.7 |
| 20260904130748 | 89 | 181 | 3.0 | 10.0 | 0.00 | 0.00 | 0.00 | 47 | 1017.8 |
| 20260904130240 | 89 | 163 | 5.0 | 10.0 | 0.00 | 0.00 | 0.00 | 47 | 1017.9 |
| 20260904125744 | 88 | 214 | 4.0 | 11.0 | 0.00 | 0.00 | 0.00 | 47 | 1017.9 |
| 20260904125223 | 88 | 155 | 7.0 | 11.0 | 0.00 | 0.00 | 0.00 | 47 | 1017.9 |
| 20260904124759 | 88 | 273 | 2.0 | 7.0 | 0.00 | 0.00 | 0.00 | 49 | 1018.1 |
| 20260904124230 | 88 | 178 | 4.0 | 7.0 | 0.00 | 0.00 | 0.00 | 48 | 1018.2 |
| 20260904123728 | 88 | 134 | 2.0 | 7.0 | 0.00 | 0.00 | 0.00 | 48 | 1018.1 |
| 20260904123235 | 88 | 185 | 3.0 | 8.0 | 0.00 | 0.00 | 0.00 | 51 | 1018.2 |
| 20260904122727 | 88 | 239 | 3.0 | 9.0 | 0.00 | 0.00 | 0.00 | 48 | 1018.2 |
| 20260904122249 | 88 | 240 | 3.0 | 9.0 | 0.00 | 0.00 | 0.00 | 48 | 1018.2 |
| 20260904121742 | 87 | 208 | 4.0 | 8.0 | 0.00 | 0.00 | 0.00 | 49 | 1018.3 |
| 20260904121247 | 87 | 193 | 3.0 | 9.0 | 0.00 | 0.00 | 0.00 | 50 | 1018.3 |
| 20260904120742 | 87 | 134 | 5.0 | 10.0 | 0.00 | 0.00 | 0.00 | 50 | 1018.3 |
| 20260904120225 | 87 | 194 | 4.0 | 11.0 | 0.00 | 0.00 | 0.00 | 51 | 1018.5 |
| 20260904115807 | 87 | 134 | 4.0 | 9.0 | 0.00 | 0.00 | 0.00 | 51 | 1018.5 |
| 20260904115234 | 87 | 150 | 4.0 | 9.0 | 0.00 | 0.00 | 0.00 | 52 | 1018.5 |
| 20260904114725 | 87 | 267 | 2.0 | 7.0 | 0.00 | 0.00 | 0.00 | 52 | 1018.5 |
| 20260904114248 | 87 | 190 | 2.0 | 7.0 | 0.00 | 0.00 | 0.00 | 52 | 1018.5 |
| 20260904113737 | 86 | 204 | 2.0 | 8.0 | 0.00 | 0.00 | 0.00 | 51 | 1018.5 |
| 20260904113230 | 86 | 161 | 2.0 | 8.0 | 0.00 | 0.00 | 0.00 | 49 | 1018.6 |
| 20260904112751 | 85 | 126 | 4.0 | 8.0 | 0.00 | 0.00 | 0.00 | 50 | 1018.6 |
| 20260904112238 | 86 | 116 | 4.0 | 8.0 | 0.00 | 0.00 | 0.00 | 48 | 1018.6 |
| 20260904111737 | 86 | 196 | 4.0 | 7.0 | 0.00 | 0.00 | 0.00 | 49 | 1018.6 |
| 20260904111229 | 86 | 211 | 3.0 | 6.0 | 0.00 | 0.00 | 0.00 | 52 | 1018.7 |
| 20260904110743 | 85 | 84 | 2.0 | 6.0 | 0.00 | 0.00 | 0.00 | 50 | 1018.7 |
| 20260904110252 | 85 | 152 | 2.0 | 8.0 | 0.00 | 0.00 | 0.00 | 51 | 1018.8 |
| 20260904105802 | 85 | 110 | 4.0 | 8.0 | 0.00 | 0.00 | 0.00 | 54 | 1018.7 |
| 20260904105305 | 85 | 119 | 3.0 | 7.0 | 0.00 | 0.00 | 0.00 | 53 | 1018.8 |
| 20260904104724 | 84 | 69 | 3.0 | 7.0 | 0.00 | 0.00 | 0.00 | 51 | 1018.9 |
| 20260904104238 | 84 | 102 | 3.0 | 7.0 | 0.00 | 0.00 | 0.00 | 51 | 1019.0 |
| 20260904103732 | 85 | 148 | 3.0 | 6.0 | 0.00 | 0.00 | 0.00 | 54 | 1019.0 |
| 20260904103301 | 85 | 150 | 3.0 | 6.0 | 0.00 | 0.00 | 0.00 | 52 | 1019.1 |
| 20260904102731 | 84 | 76 | 2.0 | 3.0 | 0.00 | 0.00 | 0.00 | 50 | 1019.1 |
| 20260904102228 | 84 | 179 | 0.0 | 5.0 | 0.00 | 0.00 | 0.00 | 49 | 1019.3 |
| 20260904101735 | 84 | 217 | 3.0 | 5.0 | 0.00 | 0.00 | 0.00 | 51 | 1019.3 |
| 20260904101224 | 84 | 259 | 2.0 | 7.0 | 0.00 | 0.00 | 0.00 | 50 | 1019.3 |
| 20260904100747 | 84 | 153 | 3.0 | 7.0 | 0.00 | 0.00 | 0.00 | 50 | 1019.4 |
| 20260904100234 | 85 | 140 | 4.0 | 7.0 | 0.00 | 0.00 | 0.00 | 48 | 1019.4 |
| 20260904095728 | 84 | 207 | 3.0 | 5.0 | 0.00 | 0.00 | 0.00 | 50 | 1019.6 |
| 20260904095229 | 83 | 5 | 2.0 | 7.0 | 0.00 | 0.00 | 0.00 | 51 | 1019.5 |
| 20260904094735 | 84 | 113 | 4.0 | 7.0 | 0.00 | 0.00 | 0.00 | 48 | 1019.6 |
| 20260904094226 | 85 | 148 | 3.0 | 5.0 | 0.00 | 0.00 | 0.00 | 50 | 1019.6 |
| 20260904093750 | 84 | 196 | 3.0 | 5.0 | 0.00 | 0.00 | 0.00 | 53 | 1019.7 |
| 20260904093258 | 83 | 154 | 4.0 | 6.0 | 0.00 | 0.00 | 0.00 | 53 | 1019.8 |
| 20260904092725 | 83 | 109 | 2.0 | 4.0 | 0.00 | 0.00 | 0.00 | 51 | 1019.8 |
| 20260904092245 | 83 | 338 | 0.0 | 3.0 | 0.00 | 0.00 | 0.00 | 50 | 1019.9 |
| 20260904091723 | 82 | 338 | 1.0 | 4.0 | 0.00 | 0.00 | 0.00 | 54 | 1020.0 |
| 20260904091238 | 81 | 47 | 1.0 | 4.0 | 0.00 | 0.00 | 0.00 | 50 | 1019.8 |
| 20260904090727 | 81 | 213 | 2.0 | 4.0 | 0.00 | 0.00 | 0.00 | 51 | 1019.8 |
| 20260904090247 | 81 | 172 | 1.0 | 4.0 | 0.00 | 0.00 | 0.00 | 51 | 1019.7 |
| 20260904085739 | 80 | 110 | 2.0 | 6.0 | 0.00 | 0.00 | 0.00 | 51 | 1019.8 |